Regional Weather Roundup
Issued by NWS

Home | Current Version | Previous Version | Graphics & Text | Print | Product List | Glossary On
Versions: 1 2 3 4 5 6 7 8 9 10 11 12 13 14 15 16 17 18 19 20 21 22 23 24 25 26 27 28 29 30 31 32 33 34 35 36 37 38 39 40 41 42 43 44 45 46 47 48 49 50
000
ASUS45 KCYS 291810
RWRWY

WYOMING REGIONAL WEATHER ROUNDUP
NATIONAL WEATHER SERVICE CHEYENNE WY
1200 PM MDT FRI MAY 29 2015

NOTE:  "FAIR" INDICATES FEW OR NO CLOUDS BELOW 12,000 FEET
WITH NO SIGNIFICANT WEATHER AND/OR OBSTRUCTIONS TO VISIBILITY.

WYZ001-291900-
YELLOWSTONE NATIONAL PARK

CITY           SKY/WX    TMP DP  RH WIND       PRES   REMARKS
LK YELLOWSTONE   N/A     50  37  61 VRB3      30.36S
6HR MIN TEMP:  30; 6HR MAX TEMP:  50;

W YELLOWSTONE  NOT AVBL

$$
WYZ002>013-054>058-071-098>099-291900-
NORTHERN WYOMING

CITY           SKY/WX    TMP DP  RH WIND       PRES   REMARKS
JACKSON        NOT AVBL
CODY           CLOUDY    52  46  82 E7        30.30S
GREYBULL       FAIR      62  45  53 NW12      30.25S
6HR MIN TEMP:  50; 6HR MAX TEMP:  62; 6HR PCP:  0.01;

WORLAND        FAIR      60  47  61 VRB6      30.27S
6HR MIN TEMP:  50; 6HR MAX TEMP:  60; 6HR PCP:  0.01;

SHERIDAN       CLOUDY    46  43  89 CALM      30.32S
6HR MIN TEMP:  43; 6HR MAX TEMP:  48; 6HR PCP:  0.02;

BUFFALO        CLOUDY    45  43  93 N9G21     30.32R FOG
6HR MIN TEMP:  42; 6HR MAX TEMP:  46; 6HR PCP:  0.02;

GILLETTE       FAIR      52  40  63 N13       30.29S
6HR MIN TEMP:  42; 6HR MAX TEMP:  52; 6HR PCP:  0.21;

HULETT         CLOUDY    45  39  81 N3        30.31R
NEWCASTLE      MOCLDY    50  43  76 NW17G25   30.25R

$$
WYZ014>020-022>026-101>103-291900-
CENTRAL WYOMING

CITY           SKY/WX    TMP DP  RH WIND       PRES   REMARKS
BIG PINEY      FAIR      54  39  57 S6        30.33F
6HR MIN TEMP:  33; 6HR MAX TEMP:  55;

PINEDALE       MOCLDY    54  37  54 S6        30.34S
DUBOIS         FAIR      54  36  50 SE7       30.31S
LANDER         PTSUNNY   56  44  64 CALM      30.29S
6HR MIN TEMP:  47; 6HR MAX TEMP:  58; 6HR PCP: TRACE;

RIVERTON       CLOUDY    55  46  71 N12       30.31S
6HR MIN TEMP:  48; 6HR MAX TEMP:  55; 6HR PCP: TRACE;

CASPER         LGT RAIN  48  45  89 NE13      30.31S
6HR MIN TEMP:  45; 6HR MAX TEMP:  49; 6HR PCP:  0.24;

DOUGLAS        LGT RAIN  49  46  90 N14       30.29R
6HR MIN TEMP:  48; 6HR MAX TEMP:  51; 6HR PCP:  0.19;


$$
WYZ021-027>030-104>119-291900-
SOUTHERN WYOMING

CITY           SKY/WX    TMP DP  RH WIND       PRES   REMARKS
EVANSTON       PTSUNNY   54  38  54 CALM      30.32S
6HR MIN TEMP:  39; 6HR MAX TEMP:  57;

KEMMERER       CLOUDY    54  36  50 SE8       30.35R
FORT BRIDGER   CLOUDY    55  43  62 NE5       30.36S
ROCK SPRINGS   FAIR      57  40  52 E6        30.32F
6HR MIN TEMP:  42; 6HR MAX TEMP:  57;

DIXON          CLOUDY    55  40  56 NW3       30.34S
RAWLINS        CLOUDY    53  39  59 N7        30.32S
6HR MIN TEMP:  41; 6HR MAX TEMP:  54; 6HR PCP: TRACE;

SARATOGA       CLOUDY    50  39  66 NW5       30.32S
LARAMIE        CLOUDY    51  38  60 N18       30.27S
6HR MIN TEMP:  43; 6HR MAX TEMP:  51; 6HR PCP: TRACE;

CHEYENNE       PTSUNNY   57  40  52 NW20G26   30.23R
6HR MIN TEMP:  48; 6HR MAX TEMP:  58; 6HR PCP: TRACE;

TORRINGTON     LGT RAIN  53  49  86 N12       30.20R
6HR MIN TEMP:  51; 6HR MAX TEMP:  55; 6HR PCP:  0.13;

PINE BLUFFS    CLOUDY    57  45  62 N21G30    30.21S

$$


USA.gov is the U.S. government's official web portal to all federal, state and local government web resources and services.